Location: Aldenham
(51.6667°N, 0.3500°W)
Time: 17:28:32
(UTC+00:00)

SKYMED 2 - Pass Details

Date: 18 November 2025
Orbit: 621 x 623 km, 97.9° (Epoch: 09 December)

Event Time Altitude Azimuth Distance (km) Brightness Sun altitude
Exits shadow 18:03:28 18° 25° (NNE) 1,563 5.3 -17.7°
Maximum altitude 18:06:39 58° 101° (E) 728 3.6 -18.2°
Drops below altitude 10° 18:10:55 10° 181° (S) 1,988 6.3 -18.8°
Sets 18:13:08 0° 185° (S) 2,889 7.2 -19.1°
